When you browse on this site, cookies collect data to enhance your experience and personalize the content and advertising you see.
Visit our Privacy Policy to learn more. By continuing to use the site, you agree to this use of cookies and data.
EN

Hourly Weather Dobrich

Today, 6 July, Monday

Time Temperature Precipitation Wind Pressure Humidity
00:00 +22°C° 0.5 mm 3 mps 735 mmHg 82%
01:00 +21°C° 0.5 mm 3 mps 735 mmHg 84%
02:00 +21°C° 0 mm 4 mps 735 mmHg 83%
03:00 +20°C° 0.1 mm 4 mps 735 mmHg 86%
04:00 +20°C° 0.1 mm 4 mps 734 mmHg 88%
05:00 +20°C° 0.1 mm 4 mps 734 mmHg 91%
06:00 +21°C° 0.1 mm 4 mps 734 mmHg 87%
07:00 +23°C° 0.1 mm 4 mps 734 mmHg 83%
08:00 +26°C° 0 mm 4 mps 734 mmHg 76%
09:00 +27°C° 0.2 mm 5 mps 734 mmHg 71%
10:00 +28°C° 0.2 mm 5 mps 734 mmHg 66%
11:00 +30°C° 0.2 mm 5 mps 734 mmHg 62%
12:00 +30°C° 1.2 mm 5 mps 734 mmHg 60%
13:00 +30°C° 1.2 mm 4 mps 733 mmHg 59%
14:00 +32°C° 1.2 mm 4 mps 733 mmHg 58%
15:00 +32°C° 0.5 mm 4 mps 733 mmHg 58%
16:00 +31°C° 0.5 mm 3 mps 732 mmHg 59%
17:00 +30°C° 0.5 mm 3 mps 732 mmHg 59%
18:00 +29°C° 0 mm 2 mps 732 mmHg 66%
19:00 +27°C° 0 mm 1 mps 731 mmHg 74%
20:00 +23°C° 0 mm 0 mps 731 mmHg 82%
21:00 +24°C° 0 mm 1 mps 731 mmHg 83%
22:00 +24°C° 0 mm 1 mps 731 mmHg 84%
23:00 +23°C° 0 mm 1 mps 731 mmHg 85%

Tomorrow, 7 July, Tuesday

Time Temperature Precipitation Wind Pressure Humidity
00:00 +23°C° 0 mm 2 mps 731 mmHg 87%
01:00 +21°C° 0 mm 2 mps 731 mmHg 88%
02:00 +21°C° 0 mm 2 mps 731 mmHg 90%
03:00 +20°C° 0 mm 2 mps 730 mmHg 91%
04:00 +20°C° 0 mm 2 mps 730 mmHg 92%
05:00 +20°C° 0 mm 2 mps 730 mmHg 93%
06:00 +23°C° 0 mm 2 mps 730 mmHg 87%
07:00 +24°C° 0 mm 3 mps 731 mmHg 82%
08:00 +26°C° 0 mm 3 mps 731 mmHg 77%
09:00 +27°C° 0.2 mm 4 mps 731 mmHg 71%
10:00 +28°C° 0.2 mm 4 mps 732 mmHg 65%
11:00 +30°C° 0.2 mm 4 mps 732 mmHg 60%
12:00 +30°C° 0.9 mm 4 mps 732 mmHg 58%
13:00 +30°C° 0.9 mm 4 mps 732 mmHg 56%
14:00 +32°C° 0.9 mm 5 mps 732 mmHg 54%
15:00 +29°C° 0.8 mm 5 mps 732 mmHg 59%
16:00 +28°C° 0.8 mm 6 mps 732 mmHg 64%
17:00 +27°C° 0.8 mm 6 mps 732 mmHg 69%
18:00 +24°C° 0.4 mm 7 mps 732 mmHg 75%
19:00 +22°C° 0.4 mm 7 mps 733 mmHg 81%
20:00 +20°C° 0.4 mm 7 mps 734 mmHg 87%
21:00 +17°C° 0 mm 7 mps 734 mmHg 87%
22:00 +16°C° 0 mm 7 mps 735 mmHg 87%
23:00 +15°C° 0 mm 6 mps 736 mmHg 87%

Day after tomorrow, 8 July, Wednesday

Time Temperature Precipitation Wind Pressure Humidity
00:00 +14°C° 0 mm 7 mps 736 mmHg 87%
01:00 +14°C° 0 mm 7 mps 736 mmHg 87%
02:00 +12°C° 0 mm 8 mps 737 mmHg 86%
03:00 +12°C° 0 mm 8 mps 737 mmHg 84%
04:00 +12°C° 0 mm 8 mps 737 mmHg 82%
05:00 +13°C° 0 mm 8 mps 738 mmHg 80%
06:00 +13°C° 0 mm 8 mps 738 mmHg 75%
07:00 +15°C° 0 mm 8 mps 739 mmHg 71%
08:00 +16°C° 0 mm 9 mps 739 mmHg 67%
09:00 +18°C° 0 mm 8 mps 739 mmHg 63%
10:00 +20°C° 0 mm 8 mps 740 mmHg 60%
11:00 +21°C° 0 mm 7 mps 740 mmHg 57%
12:00 +22°C° 0 mm 7 mps 740 mmHg 54%
13:00 +23°C° 0 mm 6 mps 740 mmHg 52%
14:00 +23°C° 0 mm 5 mps 740 mmHg 49%
15:00 +23°C° 0 mm 5 mps 740 mmHg 48%
16:00 +23°C° 0 mm 4 mps 740 mmHg 47%
17:00 +23°C° 0 mm 4 mps 739 mmHg 45%
18:00 +22°C° 0 mm 3 mps 740 mmHg 50%
19:00 +20°C° 0 mm 2 mps 740 mmHg 55%
20:00 +19°C° 0 mm 1 mps 740 mmHg 60%
21:00 +19°C° 0 mm 1 mps 740 mmHg 62%
22:00 +18°C° 0 mm 1 mps 740 mmHg 63%
23:00 +18°C° 0 mm 1 mps 740 mmHg 64%

9 July, Thursday

Time Temperature Precipitation Wind Pressure Humidity
00:00 +16°C° 0 mm 1 mps 740 mmHg 66%
01:00 +16°C° 0 mm 1 mps 741 mmHg 67%
02:00 +16°C° 0 mm 1 mps 741 mmHg 69%
03:00 +15°C° 0 mm 1 mps 741 mmHg 70%
04:00 +15°C° 0 mm 1 mps 741 mmHg 71%
05:00 +15°C° 0 mm 1 mps 741 mmHg 71%
06:00 +18°C° 0 mm 1 mps 741 mmHg 66%
07:00 +20°C° 0 mm 1 mps 742 mmHg 62%
08:00 +22°C° 0 mm 1 mps 742 mmHg 57%
09:00 +24°C° 0 mm 2 mps 742 mmHg 54%
10:00 +25°C° 0 mm 2 mps 742 mmHg 51%
11:00 +26°C° 0 mm 2 mps 743 mmHg 49%
12:00 +27°C° 0 mm 2 mps 742 mmHg 47%
13:00 +27°C° 0 mm 3 mps 742 mmHg 46%
14:00 +28°C° 0 mm 3 mps 742 mmHg 44%
15:00 +27°C° 0 mm 3 mps 742 mmHg 46%
16:00 +27°C° 0 mm 3 mps 742 mmHg 48%
17:00 +26°C° 0 mm 3 mps 741 mmHg 50%
18:00 +24°C° 0 mm 3 mps 742 mmHg 57%
19:00 +21°C° 0 mm 3 mps 742 mmHg 64%
20:00 +19°C° 0 mm 2 mps 742 mmHg 71%
21:00 +19°C° 0 mm 2 mps 742 mmHg 72%
22:00 +18°C° 0 mm 2 mps 742 mmHg 73%
23:00 +19°C° 0 mm 1 mps 742 mmHg 75%

10 July, Friday

Time Temperature Precipitation Wind Pressure Humidity
00:00 +18°C° 0 mm 1 mps 742 mmHg 76%
01:00 +18°C° 0 mm 1 mps 742 mmHg 77%
02:00 +18°C° 0 mm 1 mps 742 mmHg 78%
03:00 +18°C° 0 mm 1 mps 742 mmHg 78%
04:00 +18°C° 0 mm 1 mps 742 mmHg 78%
05:00 +18°C° 0 mm 1 mps 742 mmHg 79%
06:00 +19°C° 0 mm 2 mps 742 mmHg 73%
07:00 +21°C° 0 mm 3 mps 743 mmHg 67%
08:00 +24°C° 0 mm 3 mps 743 mmHg 61%
09:00 +25°C° 0 mm 4 mps 743 mmHg 59%
10:00 +26°C° 0 mm 4 mps 743 mmHg 57%
11:00 +27°C° 0 mm 5 mps 743 mmHg 55%
12:00 +27°C° 0.1 mm 5 mps 743 mmHg 54%
13:00 +28°C° 0.1 mm 5 mps 742 mmHg 53%
14:00 +28°C° 0.1 mm 5 mps 742 mmHg 52%
15:00 +27°C° 0 mm 5 mps 742 mmHg 54%
16:00 +27°C° 0 mm 5 mps 742 mmHg 55%
17:00 +26°C° 0 mm 5 mps 742 mmHg 57%
18:00 +25°C° 0 mm 4 mps 742 mmHg 65%
19:00 +22°C° 0 mm 3 mps 741 mmHg 72%
20:00 +20°C° 0 mm 3 mps 741 mmHg 80%
21:00 +20°C° 0 mm 2 mps 741 mmHg 82%
22:00 +19°C° 0 mm 2 mps 741 mmHg 85%
23:00 +18°C° 0 mm 2 mps 742 mmHg 87%

11 July, Saturday

Time Temperature Precipitation Wind Pressure Humidity
00:00 +19°C° 0 mm 1 mps 741 mmHg 87%
01:00 +19°C° 0 mm 1 mps 741 mmHg 87%
02:00 +19°C° 0 mm 1 mps 741 mmHg 87%
03:00 +18°C° 0 mm 1 mps 741 mmHg 86%
04:00 +18°C° 0 mm 1 mps 740 mmHg 85%
05:00 +18°C° 0 mm 1 mps 740 mmHg 85%
06:00 +19°C° 0 mm 2 mps 741 mmHg 77%
07:00 +21°C° 0 mm 2 mps 741 mmHg 69%
08:00 +24°C° 0 mm 3 mps 741 mmHg 61%
09:00 +26°C° 0 mm 3 mps 741 mmHg 56%
10:00 +27°C° 0 mm 3 mps 741 mmHg 51%
11:00 +28°C° 0 mm 4 mps 741 mmHg 45%
12:00 +28°C° 0 mm 4 mps 741 mmHg 44%
13:00 +29°C° 0 mm 4 mps 741 mmHg 43%
14:00 +29°C° 0 mm 4 mps 741 mmHg 41%
15:00 +28°C° 0 mm 4 mps 741 mmHg 44%
16:00 +28°C° 0 mm 5 mps 740 mmHg 47%
17:00 +27°C° 0 mm 5 mps 740 mmHg 50%
18:00 +25°C° 0 mm 4 mps 740 mmHg 57%
19:00 +22°C° 0 mm 3 mps 740 mmHg 64%
20:00 +20°C° 0 mm 3 mps 740 mmHg 72%
21:00 +19°C° 0 mm 2 mps 740 mmHg 74%
22:00 +19°C° 0 mm 2 mps 740 mmHg 77%
23:00 +18°C° 0 mm 2 mps 740 mmHg 80%
Show more